Cosmos 1340 Rocket - Orbit

View from above orbital plane
View from above orbital plane
View from above satellite
View from above satellite

Ground track
Ground track

The orbit data is extracted from the following two-line orbital elements,

1 13068U 82013B   13137.84334133  .00001415  00000-0  10395-3 0  1338
2 13068 081.2038 120.5321 0023896 184.9182 175.1809 15.02635915699144
Epoch (UTC): 17 May 2013 20:14:24
Eccentricity: 0.0023896
inclination: 81.2038°
perigee height: 542 km
apogee height: 575 km
right ascension of ascending node: 120.5321°
argument of perigee: 184.9182°
revolutions per day: 15.02635915
mean anomaly at epoch: 175.1809°
orbit number at epoch: 69914

The dashed part of the orbit path shows where the satellite is in the earth's shadow,  

Developed and maintained by Chris Peat, Heavens-Above GmbH. Please read the updated FAQ before sending e-mail. Imprint. DLR